Weather History for KACB - May, 2013

Change the Weather History Date:

Sunday, May 26, 2013

  Actual Average (KTVC) Record (KTVC)
Temperature  
Mean Temperature 50 °F 57 °F  
Max Temperature 67 °F 69 °F 89 °F (1978)
Min Temperature 32 °F 45 °F 27 °F (1969)
Degree Days  
Heating Degree Days 16 9  
Month to date heating degree days 330  
Since 1 July heating degree days 7397  
Cooling Degree Days 0 1  
Month to date cooling degree days 9  
Year to date cooling degree days 12  
Moisture  
Dew Point 35 °F    
Average Humidity 61    
Maximum Humidity 98    
Minimum Humidity 27    
Precipitation  
Precipitation 0.00 in 0.08 in 0.96 in (1985)
Month to date precipitation 2.16  
Year to date precipitation 11.12  
Sea Level Pressure  
Sea Level Pressure 30.30 in    
Wind  
Wind Speed 2 mph (NNW)    
Max Wind Speed 10 mph    
Max Gust Speed 17 mph    
Visibility 9 miles    
Events Fog    
T = Trace of Precipitation, MM = Missing Value Source: NWS Daily Summary

Daily Weather History Graph

Daily Weather History Graph

Search for Another Location

Airport or City:

Trip Planner

Search our weather history database for the weather conditions in past years. The results will help you decide how hot, cold, wet, or windy it might be!

Date:

Astronomy

May. 26, 2013 Rise Set
Actual Time 6:01 AM EDT 9:15 PM EDT
Civil Twilight 5:25 AM EDT 9:50 PM EDT
Nautical Twilight 4:39 AM EDT 10:37 PM EDT
Astronomical Twilight 3:42 AM EDT 11:34 PM EDT
Moon 11:00 PM EDT (5/26) 7:30 AM EDT (5/26)
Length of Visible Light 16h 25m
Length of Day
15h 14m
Waning Gibbous, 97% of the Moon is Illuminated
May 26
Waning Gibbous
May 31
Last Quarter
Jun 8
New
Jun 16
First Quarter
Jun 23
Full

Hourly Weather History & Observations

Time (EDT) Temp. Dew Point Humidity Pressure Visibility Wind Dir Wind Speed Gust Speed Precip Events Conditions
12:13 AM 39.7 °F 37.8 °F 93% 30.33 in 10.0 mi Calm Calm - N/A   Clear
12:33 AM 39.9 °F 38.1 °F 93% 30.33 in 10.0 mi Calm Calm - N/A   Clear
12:53 AM 39.0 °F 37.4 °F 94% 30.33 in 10.0 mi Calm Calm - N/A   Clear
1:13 AM 37.6 °F 36.1 °F 95% 30.33 in 10.0 mi Calm Calm - N/A   Clear
1:33 AM 38.3 °F 36.9 °F 95% 30.33 in 10.0 mi Calm Calm - N/A   Clear
1:53 AM 36.7 °F 35.4 °F 95% 30.33 in 10.0 mi Calm Calm - N/A   Clear
2:14 AM 36.9 °F 35.8 °F 96% 30.33 in 7.0 mi Calm Calm - N/A   Clear
2:33 AM 36.1 °F 35.1 °F 96% 30.34 in 10.0 mi Calm Calm - N/A   Clear
2:53 AM 35.6 °F 34.5 °F 96% 30.34 in 10.0 mi Calm Calm - N/A   Clear
3:14 AM 35.6 °F 34.7 °F 97% 30.34 in 5.0 mi Calm Calm - N/A   Clear
3:33 AM 35.6 °F 34.7 °F 97% 30.34 in 10.0 mi Calm Calm - N/A   Clear
3:53 AM 34.5 °F 33.6 °F 97% 30.33 in 10.0 mi Calm Calm - N/A   Clear
4:14 AM 34.9 °F 34.0 °F 97% 30.33 in 10.0 mi Calm Calm - N/A   Clear
4:33 AM 33.8 °F 32.9 °F 96% 30.33 in 7.0 mi Calm Calm - N/A   Clear
4:53 AM 33.3 °F 32.4 °F 96% 30.34 in 4.0 mi Calm Calm - N/A   Clear
5:13 AM 33.3 °F 32.4 °F 96% 30.33 in 4.0 mi Calm Calm - N/A   Scattered Clouds
5:33 AM 33.6 °F 32.9 °F 97% 30.33 in 5.0 mi Calm Calm - N/A   Clear
5:54 AM 32.9 °F 32.2 °F 97% 30.34 in 1.5 mi Calm Calm - N/A   Scattered Clouds
6:13 AM 33.1 °F 32.4 °F 97% 30.35 in 10.0 mi Calm Calm - N/A   Scattered Clouds
6:33 AM 33.3 °F 32.7 °F 98% 30.36 in 10.0 mi Calm Calm - N/A   Scattered Clouds
6:54 AM 34.7 °F 33.8 °F 97% 30.35 in 0.2 mi Calm Calm - N/A Fog Fog
7:13 AM 35.6 °F 34.9 °F 97% 30.36 in 10.0 mi Calm Calm - N/A   Scattered Clouds
7:34 AM 37.4 °F 36.5 °F 97% 30.36 in 10.0 mi Calm Calm - N/A   Clear
7:53 AM 39.9 °F 39.0 °F 97% 30.36 in 10.0 mi Calm Calm - N/A   Clear
8:13 AM 42.6 °F 40.3 °F 91% 30.36 in 10.0 mi Calm Calm - N/A   Clear
8:34 AM 45.7 °F 40.3 °F 81% 30.38 in 10.0 mi Calm Calm - N/A   Clear
8:53 AM 48.4 °F 40.1 °F 73% 30.38 in 10.0 mi Calm Calm - N/A   Clear
9:14 AM 50.9 °F 40.6 °F 68% 30.38 in 10.0 mi Calm Calm - N/A   Clear
9:34 AM 54.0 °F 38.8 °F 57% 30.37 in 10.0 mi Calm Calm - N/A   Clear
9:53 AM 55.8 °F 39.4 °F 54% 30.35 in 10.0 mi Calm Calm - N/A   Clear
10:14 AM 58.5 °F 36.7 °F 44% 30.36 in 10.0 mi NNE 3.5 mph - N/A   Clear
10:33 AM 59.2 °F 33.1 °F 37% 30.35 in 10.0 mi Calm Calm - N/A   Clear
10:53 AM 60.8 °F 32.4 °F 34% 30.34 in 10.0 mi Calm Calm - N/A   Clear
11:14 AM 62.8 °F 34.2 °F 34% 30.34 in 10.0 mi North 4.6 mph - N/A   Clear
11:33 AM 62.2 °F 29.7 °F 29% 30.34 in 10.0 mi East 4.6 mph - N/A   Clear
11:53 AM 63.3 °F 31.5 °F 30% 30.33 in 10.0 mi NNE 8.1 mph - N/A   Clear
12:14 PM 63.3 °F 31.5 °F 30% 30.33 in 10.0 mi SE 4.6 mph - N/A   Clear
12:33 PM 64.4 °F 32.2 °F 30% 30.33 in 10.0 mi NNE 4.6 mph - N/A   Clear
12:54 PM 64.6 °F 32.2 °F 30% 30.32 in 10.0 mi NNW 3.5 mph - N/A   Clear
1:14 PM 65.5 °F 32.2 °F 29% 30.32 in 10.0 mi NNE 3.5 mph - N/A   Clear
1:33 PM 65.7 °F 32.0 °F 29% 30.31 in 10.0 mi North 4.6 mph - N/A   Clear
1:54 PM 66.7 °F 31.6 °F 27% 30.31 in 10.0 mi NNW 3.5 mph - N/A   Clear
2:14 PM 66.7 °F 34.3 °F 30% 30.30 in 10.0 mi NNW 9.2 mph - N/A   Clear
2:33 PM 66.2 °F 34.7 °F 31% 30.30 in 10.0 mi WNW 10.4 mph - N/A   Clear
2:54 PM 66.0 °F 33.8 °F 30% 30.29 in 10.0 mi WNW 10.4 mph - N/A   Clear
3:14 PM 65.5 °F 32.7 °F 30% 30.30 in 10.0 mi West 10.4 mph 17.3 mph N/A   Clear
3:33 PM 65.5 °F 33.1 °F 30% 30.29 in 10.0 mi West 8.1 mph - N/A   Clear
3:54 PM 66.0 °F 34.0 °F 30% 30.28 in 10.0 mi WNW 9.2 mph - N/A   Clear
4:13 PM 66.4 °F 34.3 °F 31% 30.28 in 10.0 mi WNW 8.1 mph - N/A   Clear
4:33 PM 66.6 °F 34.7 °F 31% 30.27 in 10.0 mi NW 5.8 mph - N/A   Clear
4:54 PM 67.6 °F 35.2 °F 30% 30.26 in 10.0 mi NW 5.8 mph - N/A   Clear
5:13 PM 67.3 °F 34.7 °F 30% 30.25 in 10.0 mi NNW 8.1 mph - N/A   Clear
5:34 PM 67.1 °F 34.3 °F 30% 30.25 in 10.0 mi North 6.9 mph - N/A   Clear
5:54 PM 67.1 °F 34.3 °F 30% 30.24 in 10.0 mi NNW 4.6 mph - N/A   Clear
6:13 PM 66.7 °F 35.1 °F 31% 30.24 in 10.0 mi North 5.8 mph - N/A   Clear
6:34 PM 66.9 °F 34.9 °F 31% 30.23 in 10.0 mi North 5.8 mph - N/A   Clear
6:54 PM 66.2 °F 32.9 °F 29% 30.23 in 10.0 mi North 6.9 mph - N/A   Clear
7:13 PM 65.5 °F 32.4 °F 29% 30.23 in 10.0 mi NNW 4.6 mph - N/A   Clear
7:34 PM 65.3 °F 32.2 °F 29% 30.22 in 10.0 mi North 5.8 mph - N/A   Clear
7:54 PM 64.4 °F 32.4 °F 30% 30.22 in 10.0 mi North 4.6 mph - N/A   Clear
8:13 PM 63.5 °F 33.3 °F 32% 30.22 in 10.0 mi NNW 3.5 mph - N/A   Clear
8:34 PM 61.9 °F 33.4 °F 34% 30.22 in 10.0 mi NNW 3.5 mph - N/A   Clear
8:54 PM 59.5 °F 35.2 °F 40% 30.22 in 10.0 mi NNW 3.5 mph - N/A   Clear
9:14 PM 57.6 °F 36.3 °F 45% 30.22 in 10.0 mi NNW 3.5 mph - N/A   Clear
9:34 PM 53.8 °F 37.9 °F 55% 30.22 in 10.0 mi Calm Calm - N/A   Clear
9:53 PM 51.3 °F 38.8 °F 63% 30.23 in 10.0 mi Calm Calm - N/A   Clear
10:14 PM 50.7 °F 39.2 °F 65% 30.23 in 10.0 mi Calm Calm - N/A   Clear
10:34 PM 48.9 °F 38.5 °F 67% 30.24 in 10.0 mi Calm Calm - N/A   Clear
10:53 PM 47.3 °F 40.3 °F 77% 30.24 in 10.0 mi Calm Calm - N/A   Clear
11:14 PM 47.3 °F 40.3 °F 77% 30.25 in 10.0 mi Calm Calm - N/A   Clear
11:34 PM 44.6 °F 39.7 °F 83% 30.25 in 10.0 mi Calm Calm - N/A   Clear
11:53 PM 45.9 °F 40.1 °F 80% 30.26 in 10.0 mi Calm Calm - N/A   Clear